• Em Portugal
  • Lista de países
  • Para 7 dias
  • Temperatura da água
  • Mapas de satélite
  • Mapa do tempo
  • Widgets de tempo
  • user-avatar
    Iniciar Sessão

    Previsão horária em Prutz

    Hoje, 24 Setembro, Segunda-feira

    Tempo Temperatura Precipitação Vento Pressão Humidade
    00:00 +10°C° 2.5 mm 3 m/s 635 mmHg 95%
    01:00 +9°C° 2.5 mm 3 m/s 635 mmHg 97%
    02:00 +8°C° 0.8 mm 3 m/s 635 mmHg 96%
    03:00 +7°C° 0.8 mm 3 m/s 636 mmHg 96%
    04:00 +7°C° 0.8 mm 3 m/s 636 mmHg 96%
    05:00 +5°C° 0.3 mm 3 m/s 636 mmHg 95%
    06:00 +4°C° 0.3 mm 3 m/s 637 mmHg 95%
    07:00 +3°C° 0.3 mm 3 m/s 637 mmHg 94%
    08:00 +4°C° 0.1 mm 3 m/s 638 mmHg 90%
    09:00 +4°C° 0.1 mm 3 m/s 638 mmHg 86%
    10:00 +4°C° 0.1 mm 3 m/s 639 mmHg 83%
    11:00 +5°C° 0 mm 3 m/s 640 mmHg 77%
    12:00 +5°C° 0 mm 3 m/s 640 mmHg 72%
    13:00 +7°C° 0 mm 3 m/s 640 mmHg 67%
    14:00 +7°C° 0 mm 3 m/s 640 mmHg 64%
    15:00 +7°C° 0 mm 3 m/s 641 mmHg 61%
    16:00 +7°C° 0 mm 3 m/s 641 mmHg 59%
    17:00 +5°C° 0 mm 2 m/s 641 mmHg 68%
    18:00 +4°C° 0 mm 2 m/s 640 mmHg 77%
    19:00 +2°C° 0 mm 2 m/s 640 mmHg 86%
    20:00 +2°C° 0 mm 2 m/s 641 mmHg 86%
    21:00 +1°C° 0 mm 2 m/s 641 mmHg 87%
    22:00 +2°C° 0 mm 1 m/s 641 mmHg 87%
    23:00 +2°C° 0 mm 1 m/s 641 mmHg 87%

    Amanhã, 25 Setembro, Terça-feira

    Tempo Temperatura Precipitação Vento Pressão Humidade
    00:00 +1°C° 0 mm 1 m/s 641 mmHg 86%
    01:00 +1°C° 0 mm 1 m/s 641 mmHg 85%
    02:00 +1°C° 0 mm 1 m/s 641 mmHg 83%
    03:00 +1°C° 0 mm 1 m/s 641 mmHg 80%
    04:00 +1°C° 0 mm 1 m/s 641 mmHg 78%
    05:00 +1°C° 0 mm 1 m/s 642 mmHg 73%
    06:00 +2°C° 0 mm 1 m/s 642 mmHg 69%
    07:00 +2°C° 0 mm 1 m/s 642 mmHg 64%
    08:00 +5°C° 0 mm 1 m/s 643 mmHg 55%
    09:00 +7°C° 0 mm 1 m/s 643 mmHg 46%
    10:00 +9°C° 0 mm 2 m/s 644 mmHg 37%
    11:00 +10°C° 0 mm 2 m/s 644 mmHg 37%
    12:00 +10°C° 0 mm 2 m/s 644 mmHg 36%
    13:00 +12°C° 0 mm 2 m/s 644 mmHg 36%
    14:00 +12°C° 0 mm 2 m/s 644 mmHg 40%
    15:00 +12°C° 0 mm 2 m/s 644 mmHg 43%
    16:00 +10°C° 0 mm 2 m/s 644 mmHg 47%
    17:00 +8°C° 0 mm 2 m/s 643 mmHg 59%
    18:00 +6°C° 0 mm 1 m/s 643 mmHg 71%
    19:00 +4°C° 0 mm 1 m/s 642 mmHg 84%
    20:00 +4°C° 0 mm 1 m/s 643 mmHg 82%
    21:00 +3°C° 0 mm 1 m/s 643 mmHg 81%
    22:00 +3°C° 0 mm 1 m/s 643 mmHg 79%
    23:00 +4°C° 0 mm 1 m/s 643 mmHg 76%

    Depois de amanhã, 26 Setembro, Quarta-feira

    Tempo Temperatura Precipitação Vento Pressão Humidade
    00:00 +4°C° 0 mm 1 m/s 643 mmHg 72%
    01:00 +3°C° 0 mm 2 m/s 643 mmHg 69%
    02:00 +3°C° 0 mm 2 m/s 643 mmHg 68%
    03:00 +3°C° 0 mm 2 m/s 643 mmHg 67%
    04:00 +3°C° 0 mm 2 m/s 643 mmHg 66%
    05:00 +4°C° 0 mm 1 m/s 643 mmHg 63%
    06:00 +5°C° 0 mm 1 m/s 644 mmHg 60%
    07:00 +6°C° 0 mm 1 m/s 644 mmHg 57%
    08:00 +9°C° 0 mm 1 m/s 645 mmHg 48%
    09:00 +12°C° 0 mm 1 m/s 646 mmHg 38%
    10:00 +15°C° 0 mm 1 m/s 647 mmHg 29%
    11:00 +16°C° 0 mm 1 m/s 647 mmHg 29%
    12:00 +18°C° 0 mm 1 m/s 647 mmHg 29%
    13:00 +19°C° 0 mm 1 m/s 647 mmHg 29%
    14:00 +18°C° 0 mm 1 m/s 647 mmHg 33%
    15:00 +18°C° 0 mm 1 m/s 646 mmHg 38%
    16:00 +16°C° 0 mm 1 m/s 646 mmHg 42%
    17:00 +13°C° 0 mm 1 m/s 645 mmHg 54%
    18:00 +10°C° 0 mm 1 m/s 644 mmHg 67%
    19:00 +7°C° 0 mm 1 m/s 643 mmHg 79%
    20:00 +7°C° 0 mm 1 m/s 643 mmHg 77%
    21:00 +7°C° 0 mm 1 m/s 643 mmHg 74%
    22:00 +7°C° 0 mm 1 m/s 644 mmHg 72%
    23:00 +7°C° 0 mm 1 m/s 643 mmHg 68%

    27 Setembro, Quinta-feira

    Tempo Temperatura Precipitação Vento Pressão Humidade
    00:00 +7°C° 0 mm 1 m/s 643 mmHg 64%
    01:00 +7°C° 0 mm 1 m/s 643 mmHg 60%
    02:00 +7°C° 0 mm 1 m/s 643 mmHg 55%
    03:00 +7°C° 0 mm 1 m/s 643 mmHg 50%
    04:00 +7°C° 0 mm 1 m/s 642 mmHg 45%
    05:00 +8°C° 0 mm 1 m/s 643 mmHg 45%
    06:00 +8°C° 0 mm 1 m/s 643 mmHg 44%
    07:00 +9°C° 0 mm 1 m/s 643 mmHg 43%
    08:00 +12°C° 0 mm 1 m/s 644 mmHg 38%
    09:00 +15°C° 0 mm 1 m/s 645 mmHg 33%
    10:00 +19°C° 0 mm 1 m/s 645 mmHg 27%
    11:00 +20°C° 0 mm 1 m/s 645 mmHg 28%
    12:00 +21°C° 0 mm 1 m/s 645 mmHg 28%
    13:00 +21°C° 0 mm 1 m/s 645 mmHg 29%
    14:00 +21°C° 0 mm 1 m/s 644 mmHg 33%
    15:00 +20°C° 0 mm 1 m/s 644 mmHg 37%
    16:00 +20°C° 0 mm 1 m/s 643 mmHg 41%
    17:00 +16°C° 0 mm 1 m/s 642 mmHg 53%
    18:00 +13°C° 0 mm 1 m/s 641 mmHg 65%
    19:00 +9°C° 0 mm 1 m/s 640 mmHg 77%
    20:00 +9°C° 0 mm 1 m/s 640 mmHg 77%
    21:00 +9°C° 0 mm 1 m/s 640 mmHg 76%
    22:00 +9°C° 0 mm 1 m/s 640 mmHg 75%
    23:00 +8°C° 0 mm 1 m/s 639 mmHg 73%

    28 Setembro, Sexta-feira

    Tempo Temperatura Precipitação Vento Pressão Humidade
    00:00 +8°C° 0 mm 1 m/s 639 mmHg 70%
    01:00 +8°C° 0 mm 1 m/s 638 mmHg 68%
    02:00 +8°C° 0 mm 1 m/s 638 mmHg 66%
    03:00 +8°C° 0 mm 1 m/s 638 mmHg 63%
    04:00 +7°C° 0 mm 1 m/s 637 mmHg 61%
    05:00 +8°C° 0 mm 1 m/s 637 mmHg 59%
    06:00 +8°C° 0 mm 1 m/s 637 mmHg 57%
    07:00 +8°C° 0 mm 1 m/s 637 mmHg 56%
    08:00 +11°C° 0 mm 1 m/s 638 mmHg 49%
    09:00 +14°C° 0 mm 1 m/s 639 mmHg 41%
    10:00 +18°C° 0 mm 1 m/s 640 mmHg 34%
    11:00 +19°C° 0 mm 1 m/s 640 mmHg 34%
    12:00 +20°C° 0 mm 1 m/s 640 mmHg 34%
    13:00 +20°C° 0 mm 1 m/s 640 mmHg 34%
    14:00 +19°C° 0 mm 2 m/s 639 mmHg 38%
    15:00 +18°C° 0 mm 2 m/s 639 mmHg 43%
    16:00 +18°C° 0 mm 2 m/s 638 mmHg 48%
    17:00 +15°C° 0 mm 2 m/s 637 mmHg 61%
    18:00 +12°C° 0 mm 1 m/s 637 mmHg 74%
    19:00 +9°C° 0 mm 1 m/s 636 mmHg 87%
    20:00 +9°C° 0 mm 1 m/s 636 mmHg 89%
    21:00 +8°C° 0 mm 1 m/s 636 mmHg 90%
    22:00 +8°C° 0 mm 1 m/s 636 mmHg 91%
    23:00 +8°C° 0 mm 1 m/s 636 mmHg 91%

    29 Setembro, Sábado

    Tempo Temperatura Precipitação Vento Pressão Humidade
    00:00 +7°C° 0 mm 1 m/s 636 mmHg 91%
    01:00 +7°C° 0 mm 1 m/s 636 mmHg 91%
    02:00 +7°C° 0 mm 1 m/s 636 mmHg 92%
    03:00 +7°C° 0 mm 1 m/s 636 mmHg 92%
    04:00 +7°C° 0 mm 1 m/s 636 mmHg 92%
    05:00 +7°C° 0 mm 1 m/s 636 mmHg 91%
    06:00 +7°C° 0 mm 1 m/s 636 mmHg 90%
    07:00 +8°C° 0 mm 1 m/s 636 mmHg 89%
    08:00 +10°C° 0 mm 1 m/s 637 mmHg 77%
    09:00 +13°C° 0 mm 1 m/s 638 mmHg 66%
    10:00 +15°C° 0 mm 1 m/s 639 mmHg 54%
    11:00 +16°C° 0 mm 1 m/s 639 mmHg 52%
    12:00 +18°C° 0 mm 1 m/s 639 mmHg 50%
    13:00 +19°C° 0 mm 1 m/s 639 mmHg 47%
    14:00 +18°C° 0 mm 1 m/s 639 mmHg 51%
    15:00 +18°C° 0 mm 1 m/s 638 mmHg 55%
    16:00 +16°C° 0 mm 2 m/s 638 mmHg 58%
    17:00 +14°C° 0 mm 1 m/s 637 mmHg 69%
    18:00 +12°C° 0 mm 1 m/s 637 mmHg 79%
    19:00 +10°C° 0 mm 1 m/s 636 mmHg 89%
    20:00 +9°C° 0 mm 1 m/s 637 mmHg 89%
    21:00 +8°C° 0 mm 2 m/s 637 mmHg 89%
    22:00 +8°C° 0 mm 2 m/s 637 mmHg 89%
    23:00 +8°C° 0 mm 2 m/s 637 mmHg 89%
    Mostrar mais

    3.3.7123123